Date,TemperatureHighF,TemperatureAvgF,TemperatureLowF,DewpointHighF,DewpointAvgF,DewpointLowF,HumidityHigh,HumidityAvg,HumidityLow,PressureMaxIn,PressureMinIn,WindSpeedMaxMPH,WindSpeedAvgMPH,GustSpeedMaxMPH,PrecipitationSumIn
2013-1-1,31,20,10,30,18,8,98,92,73,29.98,29.80,11,4,0,0.00
2013-1-2,24,19,13,22,17,11,98,93,83,30.13,29.92,14,6,0,0.00
2013-1-3,27,21,13,25,20,12,98,97,87,30.13,29.92,12,4,0,0.00
2013-1-4,34,29,25,29,26,22,98,91,66,29.96,29.83,24,14,0,0.00
2013-1-5,33,29,26,31,27,24,98,93,79,30.26,29.98,20,6,0,0.00
2013-1-6,35,32,28,35,32,27,98,98,98,30.04,29.86,14,7,0,0.00
2013-1-7,32,26,21,32,25,21,98,97,91,30.35,30.05,10,4,0,0.00
2013-1-8,38,30,19,30,24,18,98,78,70,30.28,30.14,12,3,0,0.00
2013-1-9,46,37,28,40,32,23,98,84,71,30.29,29.94,23,9,0,0.00
2013-1-10,41,34,30,32,30,28,98,87,67,30.57,30.31,11,3,0,0.00
2013-1-11,42,39,30,41,36,28,98,90,65,30.37,29.87,11,6,0,0.00
2013-1-12,56,48,41,56,47,41,98,98,98,30.00,29.95,8,3,0,0.00
2013-1-13,65,55,48,63,54,48,98,97,89,29.97,29.75,16,4,0,0.00
2013-1-14,52,32,25,52,31,23,98,93,81,30.35,29.74,19,7,0,0.02
2013-1-15,32,27,24,26,23,20,98,85,69,30.36,30.13,6,2,0,0.00
2013-1-16,36,30,26,34,28,22,98,91,66,30.12,29.75,17,3,0,0.00
2013-1-17,32,23,14,31,22,14,98,97,88,30.12,29.81,14,5,0,0.00
2013-1-18,32,17,9,21,12,8,98,81,61,30.37,29.98,11,4,0,0.00
2013-1-19,43,38,32,33,26,21,68,63,57,29.98,29.86,20,10,0,0.00
2013-1-20,29,21,15,26,16,8,98,83,62,30.01,29.65,24,12,0,0.00
2013-1-21,19,16,12,18,11,6,98,84,70,30.00,29.79,11,3,0,0.00
2013-1-22,9,5,1,2,-3,-6,86,69,57,30.09,29.91,15,9,0,0.00
2013-1-23,12,6,0,9,2,-6,98,85,64,30.14,30.02,9,4,0,0.00
2013-1-24,12,7,1,11,4,-1,98,91,69,30.44,29.99,10,4,0,0.00
2013-1-25,14,8,2,11,6,-1,98,90,69,30.43,29.99,6,2,0,0.00
2013-1-26,26,14,3,16,11,3,98,87,58,30.34,30.00,9,2,0,0.00
2013-1-27,30,21,16,22,17,14,98,87,56,30.50,30.31,7,2,0,0.00
2013-1-28,44,35,23,43,33,17,98,93,67,30.29,29.81,14,6,0,0.24
2013-1-29,53,42,34,52,42,34,98,98,98,30.00,29.75,7,2,0,0.62
2013-1-30,60,56,50,60,55,50,98,98,98,29.74,29.04,20,7,0,0.13
2013-1-31,53,26,16,52,24,16,98,94,73,29.64,29.02,28,14,0,0.27
2013-2-1,23,16,13,18,14,11,98,95,68,30.12,29.64,15,8,0,0.00
2013-2-2,20,14,10,18,12,6,98,90,74,30.12,29.89,11,4,0,0.00
2013-2-3,25,17,11,18,13,10,98,88,54,29.89,29.71,10,3,0,0.00
2013-2-4,19,15,13,15,13,8,98,90,70,29.89,29.79,16,6,0,0.00
2013-2-5,26,19,12,22,18,12,98,93,76,29.87,29.77,8,2,0,0.00
2013-2-6,26,21,12,24,18,12,98,88,55,30.31,29.81,12,5,0,0.00
2013-2-7,30,22,10,26,18,10,98,87,68,30.34,30.00,8,3,0,0.00
2013-2-8,35,28,15,35,27,15,98,96,83,30.02,29.70,10,4,0,0.01
2013-2-9,20,15,10,19,15,10,98,98,98,30.35,30.03,8,5,0,0.00
2013-2-10,37,24,10,28,19,9,98,82,61,30.34,29.93,10,4,0,0.05
2013-2-11,50,37,30,48,35,26,98,91,66,29.91,29.54,28,12,0,0.01
2013-2-12,32,29,28,31,29,27,98,98,98,29.92,29.68,22,12,0,0.00
2013-2-13,39,30,23,29,27,23,98,90,61,29.86,29.67,8,2,0,0.00
2013-2-14,40,31,23,38,30,23,98,95,75,29.86,29.73,8,3,0,0.02
2013-2-15,36,31,20,36,28,17,98,88,66,30.00,29.72,26,11,0,0.00
2013-2-16,31,21,14,22,16,11,98,84,49,30.00,29.85,8,3,0,0.00
2013-2-17,17,12,8,17,11,3,98,93,65,30.11,29.82,13,6,0,0.00
2013-2-18,32,20,7,24,15,7,98,82,58,30.21,29.86,6,3,0,0.00
2013-2-19,41,31,20,41,28,20,98,90,66,29.86,29.51,25,9,0,0.09
2013-2-20,21,17,15,20,16,12,98,95,80,30.00,29.68,20,12,0,0.00
2013-2-21,20,16,11,18,15,11,98,96,85,30.35,29.97,13,7,0,0.00
2013-2-22,33,26,18,32,26,17,98,98,93,30.31,29.96,10,6,0,0.00
2013-2-23,37,31,28,36,30,27,98,96,84,29.96,29.83,8,5,0,0.02
2013-2-25,33,30,24,25,24,22,98,79,67,30.18,30.14,7,2,0,0.00
2013-2-26,39,32,23,31,26,20,99,79,58,30.17,29.72,12,6,0,0.04
2013-2-27,41,33,31,35,32,30,99,96,76,29.72,29.52,8,3,0,0.29
2013-2-28,34,32,30,32,31,30,99,96,85,29.68,29.49,9,6,0,0.07
2013-3-1,30,27,22,30,26,21,99,95,85,29.86,29.68,9,6,0,0.00
2013-3-2,24,21,17,19,18,16,99,91,80,29.88,29.82,10,5,0,0.00
2013-3-3,23,20,18,19,18,16,99,93,75,29.84,29.78,10,6,0,0.00
2013-3-4,26,21,17,22,19,16,97,89,76,29.99,29.84,15,8,0,0.00
2013-3-5,37,25,19,21,19,17,98,81,50,30.04,29.90,8,4,0,0.07
2013-3-6,39,29,17,31,25,17,99,87,60,30.10,29.88,7,2,0,0.12
2013-3-7,37,32,27,31,29,26,99,88,72,30.24,30.09,9,3,0,0.02
2013-3-8,41,32,27,27,24,20,99,74,47,30.37,30.22,10,5,0,0.01
2013-3-9,47,34,26,30,26,23,99,74,45,30.38,30.20,9,3,0,0.19
2013-3-10,59,48,35,30,25,21,66,42,32,30.19,29.97,9,5,0,0.00
2013-3-11,55,50,47,44,30,26,80,46,39,29.97,29.63,11,6,0,0.00
2013-3-12,50,36,31,46,32,25,95,86,79,29.88,29.65,13,8,0,0.28
2013-3-13,34,28,19,28,22,14,94,78,57,29.89,29.79,20,9,0,0.00
2013-3-14,32,22,14,16,11,4,94,67,31,30.01,29.89,19,10,0,0.00
2013-3-15,32,28,22,29,23,13,93,83,66,29.98,29.69,19,9,0,0.00
2013-3-16,30,23,15,21,17,13,91,77,61,29.92,29.77,6,2,0,0.00
2013-3-17,30,22,14,20,15,8,94,75,44,30.28,29.91,9,4,0,0.00
2013-3-18,32,23,13,29,17,8,94,77,46,30.28,29.65,14,7,0,0.00
2013-3-19,34,29,20,31,25,19,97,87,72,29.78,29.61,17,8,0,0.00
2013-3-20,31,23,18,22,18,12,94,83,50,29.78,29.74,17,9,0,0.00
2013-3-21,28,21,13,22,16,10,94,81,55,29.77,29.65,14,7,0,0.00
2013-3-22,27,24,21,24,22,19,93,90,87,29.88,29.67,17,10,0,0.00
2013-3-23,38,30,26,24,22,19,88,74,49,29.97,29.86,12,7,0,0.00
2013-3-24,41,29,22,23,20,15,94,71,43,29.98,29.67,7,4,0,0.00
2013-3-25,42,32,26,28,23,21,82,72,51,29.68,29.55,8,2,0,0.00
2013-3-26,45,35,28,29,26,24,83,71,49,29.92,29.68,10,6,0,0.00
2013-3-27,40,32,28,31,28,23,96,84,67,30.02,29.89,13,8,0,0.00
2013-3-28,39,33,30,32,30,28,97,87,71,30.17,30.00,10,6,0,0.09
2013-3-29,49,38,32,33,29,26,87,73,47,30.17,30.10,11,6,0,0.00
2013-3-30,49,38,30,28,24,21,78,59,36,30.18,30.02,10,5,0,0.00
2013-3-31,54,42,36,40,29,20,93,62,39,30.02,29.60,13,5,0,0.01
2013-4-1,43,32,11,38,26,11,99,80,50,29.90,29.54,18,9,0,0.12
2013-4-2,32,24,19,23,17,12,91,74,57,30.06,29.89,22,10,0,0.00
2013-4-3,35,26,22,23,17,13,80,67,40,30.34,30.06,15,8,0,0.00
2013-4-4,56,36,21,23,17,13,78,49,19,30.31,29.89,9,4,0,0.00
2013-4-5,41,36,25,27,21,14,70,56,36,30.11,29.86,16,7,0,0.00
2013-4-6,48,34,22,23,18,15,78,55,27,30.28,30.00,6,3,0,0.00
2013-4-7,68,52,39,45,32,18,75,48,34,30.01,29.71,21,9,0,0.00
2013-4-8,63,45,35,46,36,30,84,70,46,30.09,29.76,9,3,0,0.00
2013-4-9,65,51,42,50,43,39,98,76,46,30.10,29.74,21,7,0,1.00
2013-4-10,46,41,36,46,41,36,99,99,98,30.02,29.84,7,2,0,0.68
2013-4-11,36,32,30,36,31,27,99,96,80,30.10,29.90,6,3,0,0.13
2013-4-12,51,38,31,48,36,31,99,93,80,29.89,29.49,18,7,0,0.15
2013-4-13,41,38,34,34,31,28,88,78,60,29.91,29.74,18,9,0,0.00
2013-4-14,49,38,32,31,27,24,84,66,45,30.16,29.91,11,5,0,0.00
2013-4-15,72,53,33,47,39,26,79,60,39,30.13,29.99,11,5,0,0.00
2013-4-16,64,55,43,55,48,36,95,78,67,30.22,29.98,15,7,0,0.19
2013-4-17,56,44,34,37,32,29,82,63,41,30.33,30.20,7,3,0,0.00
2013-4-18,74,60,41,58,49,32,76,67,57,30.20,29.72,14,8,0,0.00
2013-4-19,70,55,38,57,46,28,88,73,62,29.73,29.39,24,11,0,0.12
2013-4-20,38,34,28,30,25,21,92,72,57,30.37,29.71,23,11,0,0.00
2013-4-21,46,33,23,26,21,15,84,62,42,30.65,30.38,6,3,0,0.14
2013-4-22,59,44,30,31,24,17,69,48,28,30.57,30.32,10,5,0,0.00
2013-4-23,67,50,35,37,32,26,71,51,27,30.32,29.94,10,5,0,0.00
2013-4-24,67,50,34,53,41,31,94,72,52,29.99,29.59,16,8,0,0.17
2013-4-25,55,41,33,36,31,26,91,70,35,30.28,29.99,17,7,0,0.02
2013-4-26,57,43,33,36,30,24,92,63,33,30.46,30.29,9,4,0,0.00
2013-4-27,72,53,37,38,33,28,68,49,27,30.43,30.22,9,4,0,0.00
2013-4-28,70,57,47,46,38,33,84,52,29,30.22,30.02,12,5,0,0.02
2013-4-29,63,59,55,50,49,48,79,70,63,30.05,29.98,9,5,0,0.00
2013-4-30,71,61,54,53,50,48,85,69,50,30.22,30.04,11,5,0,0.00
2013-5-1,79,64,54,50,44,28,80,53,25,30.36,30.23,8,4,0,0.00
2013-5-2,78,64,53,45,36,30,57,36,20,30.43,30.28,8,4,0,0.00
2013-5-3,60,55,52,40,38,37,61,52,42,30.30,30.28,4,2,0,0.00
2013-5-4,76,66,54,42,40,35,62,40,27,30.29,30.15,10,4,0,0.00
2013-5-5,78,63,50,49,40,33,70,46,22,30.21,30.09,7,3,0,0.00
2013-5-6,78,62,49,42,35,28,56,38,22,30.16,30.02,6,3,0,0.00
2013-5-7,78,65,54,53,50,44,77,59,36,30.13,30.01,8,3,0,0.00
2013-5-8,65,59,54,59,53,47,99,81,70,30.06,29.93,6,2,0,0.22
2013-5-9,68,59,55,59,56,50,99,89,70,29.98,29.87,11,4,0,0.38
2013-5-10,74,61,56,60,53,46,98,76,59,29.96,29.72,8,3,0,0.32
2013-5-11,58,51,45,56,48,42,99,89,71,29.76,29.67,14,6,0,0.06
2013-5-12,49,41,33,44,33,28,94,76,55,29.90,29.68,24,11,0,0.12
2013-5-13,47,38,31,33,30,27,87,73,56,30.11,29.90,14,8,0,0.00
2013-5-14,59,46,34,38,31,26,91,59,32,30.13,29.93,9,3,0,0.00
2013-5-15,79,60,46,60,47,38,77,62,43,29.93,29.54,23,7,0,0.00
2013-5-16,75,64,50,48,43,33,67,50,28,30.01,29.74,13,6,0,0.05
2013-5-17,72,54,40,43,39,34,89,58,30,30.23,30.02,5,2,0,0.00
2013-5-18,71,58,48,51,43,36,77,58,43,30.26,30.14,6,2,0,0.00
2013-5-19,79,66,57,62,56,51,84,72,53,30.15,30.01,10,4,0,0.00
2013-5-20,89,72,60,67,61,56,88,70,42,30.06,29.89,9,3,0,0.00
2013-5-21,89,73,62,69,63,57,95,72,45,29.94,29.78,11,5,0,0.58
2013-5-22,88,74,62,69,63,60,96,71,41,29.83,29.68,10,4,0,0.00
2013-5-23,71,64,45,61,57,44,98,79,63,29.87,29.72,10,5,0,0.29
2013-5-24,49,40,36,43,37,34,99,88,62,30.19,29.88,15,7,0,0.27
2013-5-25,58,46,36,38,35,32,92,67,42,30.22,30.15,13,7,0,0.00
2013-5-26,63,50,40,38,35,30,80,59,29,30.21,30.13,18,7,0,0.14
2013-5-27,76,58,45,41,36,32,73,46,26,30.27,30.15,8,4,0,0.00
2013-5-28,62,56,50,61,50,35,99,82,49,30.17,29.95,5,2,0,1.63
2013-5-29,79,70,61,66,62,58,99,78,55,30.05,29.92,13,6,0,0.43
2013-5-30,88,75,68,66,62,59,80,64,44,30.15,30.06,9,4,0,0.00
2013-5-31,89,75,65,67,62,58,81,65,43,30.11,29.96,11,3,0,0.00
2013-6-1,87,73,64,68,64,59,96,75,52,29.99,29.79,12,4,0,0.30
2013-6-2,74,66,55,65,60,51,99,82,55,29.89,29.72,19,6,0,1.35
2013-6-3,65,54,46,50,44,42,93,72,51,30.03,29.90,10,5,0,0.00
2013-6-4,70,56,46,44,40,36,85,58,33,30.18,30.02,9,5,0,0.00
2013-6-5,68,57,49,48,43,36,76,61,44,30.22,30.10,6,2,0,0.00
2013-6-6,55,52,49,55,52,47,99,98,89,29.99,29.90,5,2,0,2.10
2013-6-7,55,55,55,55,55,54,99,99,99,29.82,29.81,6,4,0,0.00
2013-6-8,61,57,54,57,54,50,99,92,81,30.09,29.81,9,4,0,0.04
2013-6-9,79,64,53,57,53,48,88,69,47,30.21,30.09,7,3,0,0.02
2013-6-10,68,63,60,64,60,54,99,88,77,30.13,29.73,7,3,0,0.04
2013-6-11,70,63,59,64,60,56,99,89,69,29.86,29.65,12,6,0,0.31
2013-6-12,86,65,54,59,54,51,92,69,37,29.95,29.79,6,2,0,0.00
2013-6-13,65,59,54,60,57,53,99,93,71,29.78,29.49,6,2,0,1.83
2013-6-14,75,61,53,58,55,53,99,83,52,30.00,29.78,10,5,0,0.00
2013-6-15,73,64,54,56,50,44,89,63,42,30.07,29.97,10,5,0,0.03
2013-6-16,75,65,60,64,58,52,94,79,67,29.97,29.72,12,4,0,0.15
2013-6-17,81,68,59,61,58,55,97,72,46,29.95,29.84,13,4,0,0.00
2013-6-18,75,61,53,58,52,45,96,73,36,30.04,29.89,6,1,0,0.00
2013-6-19,78,59,48,48,45,40,88,61,34,30.21,30.03,7,2,0,0.00
2013-6-20,82,63,50,54,47,40,73,57,33,30.26,30.20,6,2,0,0.00
2013-6-21,86,68,58,60,52,44,74,58,37,30.29,30.21,7,3,0,0.00
2013-6-22,88,75,63,68,62,54,78,64,48,30.21,30.05,10,4,0,0.00
2013-6-23,87,78,71,71,66,62,76,66,57,30.11,30.04,11,4,0,0.01
2013-6-24,85,78,73,69,65,62,72,65,51,30.08,29.98,11,6,0,0.00
2013-6-25,82,74,69,67,63,61,78,69,55,29.99,29.83,12,6,0,0.00
2013-6-26,84,73,68,68,64,60,85,74,56,29.86,29.82,11,5,0,0.00
2013-6-27,79,70,65,68,64,60,94,81,66,29.84,29.66,6,2,0,0.25
2013-6-28,72,64,59,65,62,59,99,93,77,29.66,29.50,7,2,0,1.27
2013-6-29,81,66,59,65,61,59,99,85,51,29.72,29.50,8,2,0,0.41
2013-6-30,84,67,58,66,61,57,97,80,52,29.95,29.71,4,1,0,0.00
2013-7-1,67,62,58,61,60,57,99,93,80,30.08,29.94,4,1,0,0.57
2013-7-2,81,66,57,70,63,57,99,90,70,30.13,30.03,5,1,0,0.08
2013-7-3,87,73,65,73,68,64,99,85,56,30.18,30.10,7,2,0,0.39
2013-7-4,88,74,69,70,67,65,92,80,50,30.22,30.14,6,3,0,0.01
2013-7-5,83,74,68,71,67,65,90,80,61,30.17,30.09,9,4,0,0.00
2013-7-6,96,75,67,73,66,62,89,74,47,30.18,30.07,6,2,0,0.00
2013-7-7,80,73,69,69,67,61,96,80,62,30.10,29.97,10,4,0,0.11
2013-7-8,82,72,68,68,65,62,89,79,59,30.09,30.01,8,5,0,0.00
2013-7-9,87,73,68,71,67,64,92,82,54,30.08,29.93,8,2,0,0.05
2013-7-10,85,74,68,72,67,59,97,80,62,29.94,29.76,12,5,0,0.09
2013-7-11,80,67,58,63,57,54,90,72,50,30.05,29.85,9,4,0,0.02
2013-7-12,76,66,58,62,59,56,96,80,58,30.21,30.04,3,1,0,0.00
2013-7-13,83,70,59,68,63,56,97,80,58,30.28,30.19,11,2,0,0.00
2013-7-14,93,76,66,73,67,64,92,76,50,30.35,30.28,5,2,0,0.00
2013-7-15,95,79,71,72,68,58,91,71,47,30.34,30.28,5,3,0,0.00
2013-7-16,92,79,71,70,66,58,83,66,44,30.34,30.26,7,4,0,0.00
2013-7-17,91,83,74,75,72,69,88,70,50,30.28,30.13,8,5,0,0.00
2013-7-18,92,79,74,74,69,-100,90,74,52,30.16,30.00,8,-9,0,0.00
2013-7-19,91,81,66,72,68,63,95,67,47,30.00,29.77,15,7,0,1.73
2013-7-20,86,71,65,67,64,60,96,81,47,29.92,29.73,16,4,0,0.45
2013-7-21,78,68,62,63,59,56,88,73,53,30.03,29.92,4,1,0,0.00
2013-7-22,78,68,58,66,61,56,93,80,61,30.03,29.81,6,1,0,0.07
2013-7-23,82,70,62,66,64,59,97,82,53,29.81,29.64,11,4,0,0.17
2013-7-24,74,60,52,59,51,47,90,74,45,30.06,29.73,9,4,0,0.00
2013-7-25,79,61,49,54,49,45,89,68,38,30.15,30.06,5,1,0,0.00
2013-7-26,84,68,52,60,55,49,91,65,40,30.14,30.03,5,1,0,0.00
2013-7-27,78,67,58,63,58,53,90,75,58,30.03,29.84,6,2,0,0.00
2013-7-28,74,65,56,62,58,52,95,79,56,30.01,29.83,8,2,0,0.07
2013-7-29,70,61,53,56,53,50,90,75,57,30.15,30.00,9,4,0,0.00
2013-7-30,76,64,55,58,55,52,89,73,53,30.23,30.16,6,3,0,0.00
2013-7-31,82,67,57,62,56,52,90,71,46,30.19,29.97,6,2,0,0.00
2013-8-1,78,67,61,64,60,57,96,80,57,29.96,29.79,14,3,0,0.23
2013-8-2,75,66,59,62,58,54,94,79,49,29.92,29.86,13,4,0,0.11
2013-8-3,75,65,58,58,53,-100,94,70,46,29.97,29.92,8,-8,0,0.00
2013-8-4,71,62,54,56,52,46,89,71,51,30.03,29.94,9,5,0,0.00
2013-8-5,84,61,51,56,50,47,92,70,35,30.06,29.95,5,2,0,0.00
2013-8-6,84,66,54,60,54,49,89,67,43,29.99,29.91,5,2,0,0.00
2013-8-7,81,70,61,67,62,57,89,75,59,29.93,29.81,10,2,0,0.00
2013-8-8,83,71,63,71,66,61,98,86,64,29.91,29.85,6,1,0,1.26
2013-8-9,79,69,63,68,64,56,99,86,55,29.90,29.81,8,3,0,0.96
2013-8-10,75,65,59,60,55,48,92,71,49,30.05,29.90,9,4,0,0.00
2013-8-11,82,64,54,58,54,51,93,71,42,30.08,29.98,7,2,0,0.00
2013-8-12,76,67,60,62,56,50,84,69,56,29.99,29.80,6,2,0,0.00
2013-8-13,70,64,54,63,57,45,97,79,56,29.82,29.69,12,4,0,0.45
2013-8-14,70,57,50,52,48,45,93,73,47,30.03,29.80,12,5,0,0.00
2013-8-15,71,60,51,53,49,45,84,68,47,30.08,30.03,10,4,0,0.00
2013-8-16,84,64,54,60,53,47,84,68,41,30.14,30.05,6,2,0,0.00
2013-8-17,90,66,54,62,54,49,91,69,39,30.23,30.14,4,1,0,0.00
2013-8-18,83,69,60,61,55,49,78,62,47,30.17,30.02,6,2,0,0.00
2013-8-19,83,70,61,62,59,56,91,70,49,30.04,29.94,8,3,0,0.00
2013-8-20,83,70,62,63,58,54,81,66,49,30.05,29.97,8,4,0,0.00
2013-8-21,89,73,61,67,60,56,85,66,47,30.07,29.93,7,3,0,0.00
2013-8-22,81,72,64,70,64,56,91,77,63,29.94,29.81,11,4,0,0.06
2013-8-23,82,65,54,58,55,50,95,71,40,30.09,29.89,6,2,0,0.00
2013-8-24,85,62,50,61,52,49,97,73,41,30.24,30.10,4,1,0,0.00
2013-8-25,80,68,56,60,54,50,81,63,44,30.18,29.99,7,3,0,0.00
2013-8-26,78,70,66,67,62,56,94,77,62,30.03,29.77,12,6,0,0.34
2013-8-27,86,73,67,71,68,66,96,85,59,29.79,29.72,7,3,0,0.00
2013-8-28,84,72,66,72,68,65,99,87,61,29.82,29.71,4,1,0,0.27
2013-8-29,90,72,65,70,66,63,98,82,51,29.92,29.82,5,1,0,0.00
2013-8-30,85,73,65,68,65,60,91,77,58,29.88,29.63,6,3,0,0.00
2013-8-31,81,73,66,69,67,65,96,81,66,29.73,29.57,9,3,0,0.00
2013-9-1,82,71,64,70,66,62,99,88,65,29.72,29.63,6,1,0,1.05
2013-9-2,79,70,60,71,65,55,98,87,67,29.69,29.58,11,3,0,0.36
2013-9-3,64,61,58,57,55,53,88,82,73,29.84,29.67,11,4,0,0.00
2013-9-4,74,65,56,61,56,51,95,74,52,29.89,29.84,13,5,0,0.33
2013-9-5,65,56,48,60,48,37,96,75,45,30.11,29.87,10,4,0,0.01
2013-9-6,74,56,45,50,44,38,85,67,39,30.17,29.99,5,2,0,0.00
2013-9-7,65,60,53,60,51,45,91,73,58,29.98,29.76,9,3,0,0.07
2013-9-8,74,60,47,63,52,42,98,77,45,29.99,29.74,7,2,0,0.06
2013-9-9,51,48,46,43,42,41,85,79,73,30.02,29.99,8,4,0,0.00
2013-9-11,78,74,70,71,68,64,86,81,76,29.95,29.81,8,4,0,0.00
2013-9-12,74,66,58,66,62,55,95,86,75,29.85,29.62,8,4,0,0.22
2013-9-13,57,52,46,55,50,45,97,91,84,29.89,29.65,9,6,0,0.07
2013-9-14,66,50,45,45,42,39,97,75,42,30.00,29.88,9,4,0,0.00
2013-9-15,66,56,45,51,46,37,90,71,57,30.03,29.94,9,3,0,0.00
2013-9-16,55,48,40,52,46,39,97,92,84,30.24,29.94,5,1,0,0.02
2013-9-17,71,48,36,49,40,36,99,76,43,30.35,30.17,5,2,0,0.00
2013-9-18,84,59,47,56,45,38,86,61,36,30.17,29.99,8,3,0,0.00
2013-9-19,82,66,52,60,55,45,91,67,48,30.02,29.90,7,3,0,0.00
2013-9-20,82,68,57,65,59,54,90,76,55,29.91,29.66,9,2,0,0.00
2013-9-21,67,60,51,61,57,49,97,89,76,29.66,29.51,10,2,0,0.72
2013-9-22,53,49,46,48,43,40,91,79,64,29.89,29.61,11,5,0,0.00
2013-9-23,60,49,43,43,40,38,87,72,52,30.01,29.89,9,3,0,0.00
2013-9-24,72,52,42,48,43,37,95,73,44,30.01,29.88,6,3,0,0.00
2013-9-25,70,54,46,52,46,39,92,74,47,29.88,29.82,4,1,0,0.00
2013-9-26,70,55,45,54,47,40,95,77,58,30.03,29.87,4,0,0,0.00
2013-9-27,71,56,46,55,50,46,99,83,57,30.14,30.03,3,1,0,0.00
2013-9-28,78,59,49,58,52,48,99,79,49,30.16,30.06,5,2,0,0.00
2013-9-29,75,59,46,55,50,44,94,73,50,30.05,29.88,8,2,0,0.00
2013-9-30,76,63,13,60,54,10,93,75,55,29.90,29.83,5,2,0,0.00
2013-10-1,74,62,57,58,56,54,92,80,51,29.91,29.80,7,3,0,0.00
2013-10-2,73,66,57,62,58,53,89,76,58,29.98,29.80,10,5,0,0.00
2013-10-3,73,60,50,54,47,39,90,63,42,30.01,29.91,6,1,0,0.01
2013-10-4,72,66,59,66,63,52,98,90,76,29.95,29.87,9,3,0,0.07
2013-10-5,62,58,56,60,58,56,99,98,92,29.98,29.91,3,1,0,0.88
2013-10-6,81,68,57,69,63,56,99,86,63,29.90,29.62,5,2,0,0.83
2013-10-7,71,58,48,63,52,43,95,80,60,29.91,29.53,18,6,0,0.83
2013-10-8,63,51,44,47,44,41,92,76,51,30.22,29.92,7,2,0,0.01
2013-10-9,64,52,45,47,42,40,84,71,52,30.27,30.15,8,4,0,0.00
2013-10-10,65,54,47,47,42,37,86,63,38,30.14,30.02,8,2,0,0.00
2013-10-11,70,56,47,49,44,38,91,68,45,30.04,29.98,6,1,0,0.00
2013-10-12,73,61,47,48,42,39,93,54,30,30.08,30.00,6,2,0,0.00
2013-10-13,66,60,56,61,53,41,98,79,55,30.16,30.07,9,3,0,0.45
2013-10-14,62,54,46,57,50,42,98,87,65,30.22,30.13,8,2,0,0.06
2013-10-15,65,56,45,55,50,43,94,83,69,30.16,29.84,8,2,0,0.00
2013-10-16,66,59,55,57,53,49,94,80,72,29.83,29.64,14,4,0,0.25
2013-10-17,64,53,48,50,48,45,97,84,59,29.75,29.53,7,2,0,0.83
2013-10-18,57,49,47,47,43,38,96,80,59,29.77,29.58,12,5,0,0.17
2013-10-19,59,50,41,45,41,37,92,73,56,29.76,29.50,13,4,0,0.15
2013-10-20,46,43,39,42,39,36,94,87,78,29.84,29.61,12,4,0,0.06
2013-10-21,65,52,40,46,39,37,95,64,38,29.83,29.66,15,3,0,0.00
2013-10-22,48,43,38,46,35,28,95,75,59,29.69,29.59,18,6,0,0.19
2013-10-23,43,38,33,36,33,27,91,84,66,29.67,29.54,7,4,0,0.02
2013-10-24,47,37,32,35,31,28,97,80,51,29.87,29.63,16,7,0,0.32
2013-10-25,46,38,32,38,35,32,99,90,66,30.03,29.87,9,4,0,0.21
2013-10-26,44,39,36,35,32,27,93,75,56,29.98,29.63,17,6,0,0.07
2013-10-27,45,39,34,37,35,32,94,84,66,29.91,29.66,10,5,0,0.00
2013-10-28,48,40,29,39,32,22,86,73,44,30.24,29.88,10,3,0,0.00
2013-10-29,49,36,25,31,28,23,91,74,48,30.31,30.14,6,1,0,0.00
2013-10-30,58,45,34,44,37,31,93,77,55,30.14,29.96,6,1,0,0.00
2013-10-31,66,56,45,58,51,39,99,84,69,29.95,29.25,14,5,0,0.51
2013-11-1,61,53,44,57,47,40,95,79,65,29.53,29.08,26,10,0,0.49
2013-11-2,47,42,1,44,40,-8,98,93,66,29.83,29.45,11,4,0,0.27
2013-11-3,37,30,24,33,25,21,97,80,59,30.36,29.83,7,3,0,0.00
2013-11-4,39,31,23,26,23,20,91,71,47,30.48,30.31,6,3,0,0.00
2013-11-5,52,46,33,35,31,23,66,57,50,30.32,30.23,15,6,0,0.00
2013-11-6,67,55,44,55,46,30,94,73,52,30.14,29.67,11,5,0,0.20
2013-11-7,54,41,34,52,37,30,96,86,75,29.84,29.65,15,7,0,0.48
2013-11-8,39,35,33,31,29,28,85,78,65,30.07,29.79,11,6,0,0.00
2013-11-9,48,40,33,42,32,28,87,74,51,30.06,29.64,14,4,0,0.02
2013-11-10,47,40,35,42,35,29,88,79,68,30.00,29.62,20,10,0,0.07
2013-11-11,43,35,25,35,30,24,97,85,62,30.01,29.76,14,6,0,0.22
2013-11-12,30,24,20,25,20,17,96,87,68,30.21,29.94,11,5,0,0.00
2013-11-13,35,27,16,27,21,15,95,80,56,30.25,29.92,18,7,0,0.02
2013-11-14,48,38,32,24,20,15,68,48,30,29.95,29.86,18,9,0,0.00
2013-11-15,43,41,40,22,20,18,48,42,38,29.93,29.89,12,7,0,0.00
2013-11-17,58,54,40,54,50,22,91,86,47,29.82,29.24,15,7,0,0.25
2013-11-18,53,42,33,47,36,26,87,77,70,29.74,29.24,23,13,0,0.06
2013-11-19,36,31,24,28,24,21,90,77,57,30.28,29.74,22,6,0,0.00
2013-11-20,35,27,20,26,22,18,93,82,63,30.41,30.27,6,2,0,0.00
2013-11-21,40,36,32,35,29,18,93,75,56,30.27,30.10,11,5,0,0.04
2013-11-22,46,40,29,45,39,26,99,95,87,30.08,29.84,21,5,0,0.21
2013-11-23,32,24,13,27,19,8,93,82,65,30.01,29.83,20,10,0,0.00
2013-11-24,21,15,11,15,11,7,92,85,65,30.21,29.99,15,8,0,0.00
2013-11-25,33,24,13,23,13,8,92,65,36,30.20,29.92,10,4,0,0.00
2013-11-26,33,30,28,30,27,23,99,87,79,29.97,29.62,11,3,0,0.00
2013-11-27,30,26,18,29,25,15,99,95,82,29.72,29.46,11,2,0,0.00
2013-11-28,28,19,13,18,15,11,96,86,55,30.22,29.73,10,4,0,0.00
2013-11-29,37,18,10,18,14,7,97,87,41,30.55,30.22,4,1,0,0.09
2013-11-30,32,22,13,24,17,9,90,79,66,30.52,30.01,8,5,0,0.00
2013-12-1,42,34,28,32,29,24,92,83,64,30.01,29.79,9,3,0,0.11
2013-12-2,40,35,30,33,31,29,95,87,74,29.78,29.68,6,2,0,0.00
2013-12-3,39,30,27,30,27,25,97,87,70,29.82,29.72,4,2,0,0.00
2013-12-4,48,38,28,41,35,26,98,88,75,29.84,29.72,8,2,0,0.02
2013-12-5,58,47,36,53,43,33,90,87,77,29.85,29.60,13,6,0,0.01
2013-12-6,35,30,26,32,27,24,97,90,84,30.07,29.85,10,5,0,0.06
2013-12-7,26,23,18,24,18,12,93,81,65,30.38,30.06,16,6,0,0.00
2013-12-8,24,20,15,21,15,11,94,79,59,30.38,29.99,8,4,0,0.00
2013-12-9,37,31,22,34,28,20,93,88,81,29.98,29.68,17,8,0,0.13
2013-12-10,29,21,15,24,17,13,95,84,72,29.84,29.71,15,8,0,0.00
2013-12-11,23,17,9,21,14,6,94,88,77,30.08,29.85,14,7,0,0.00
2013-12-12,15,11,7,13,8,4,93,88,78,30.12,29.85,13,7,0,0.00
2013-12-13,23,16,9,18,14,6,93,89,81,30.18,29.82,15,7,0,0.00
2013-12-14,17,10,6,16,8,4,95,92,88,30.21,29.52,8,3,0,0.01
2013-12-15,23,19,14,22,18,11,98,95,85,29.65,29.40,13,6,0,0.00
2013-12-16,23,12,3,12,9,1,94,86,62,29.97,29.65,13,5,0,0.00
2013-12-17,27,17,3,24,15,1,96,91,87,29.93,29.70,13,4,0,0.00
2013-12-18,28,25,21,24,22,19,95,88,81,29.87,29.71,13,6,0,0.00
2013-12-19,40,34,23,32,27,17,91,77,64,29.87,29.70,16,6,0,0.06
2013-12-20,46,40,34,45,38,32,99,94,85,29.82,29.60,10,3,0,0.15
2013-12-21,53,44,30,51,43,30,99,96,89,29.71,29.57,12,4,0,1.11
2013-12-22,49,35,29,48,34,28,99,97,89,29.80,29.43,17,6,0,0.35
2013-12-23,38,32,21,35,28,17,97,87,73,30.07,29.78,13,7,0,0.02
2013-12-24,24,18,9,21,15,7,94,89,81,30.27,30.00,10,4,0,0.00
2013-12-25,22,12,-1,15,8,-3,93,84,72,30.30,30.01,7,3,0,0.00
2013-12-26,31,24,20,26,20,15,94,85,76,30.09,29.87,15,6,0,0.00
2013-12-27,31,26,18,27,23,14,92,87,83,30.09,29.91,10,5,0,0.00
2013-12-28,45,39,31,34,31,26,83,73,59,29.92,29.78,17,8,0,0.00
2013-12-29,43,38,29,37,32,27,97,79,59,29.78,29.45,16,6,0,0.28
2013-12-30,28,16,12,27,12,6,95,83,73,30.01,29.58,11,5,0,0.00
2013-12-31,21,14,10,17,10,5,92,84,76,30.03,29.76,18,7,0,0.00
2014-1-1,20,13,9,11,8,4,92,79,59,30.19,30.03,10,3,0,0.00
2014-1-2,13,8,0,10,5,-2,92,90,86,30.07,29.75,11,4,0,0.00